Time,TemperatureF,DewpointF,PressureIn,WindDirection,WindDirectionDegrees,WindSpeedMPH,WindSpeedGustMPH,Humidity,HourlyPrecipIn,Conditions,Clouds,dailyrainin,SoftwareType,DateUTC
2013-09-16 00:44:00,54.0,50.0,-100.00,WSW,250,5.0,10.0,86,-99.99,,,-99.99,,2013-09-16 05:44:00,
2013-09-16 00:53:00,54.0,50.0,-100.00,WSW,250,5.0,10.0,86,-99.99,,,-99.99,,2013-09-16 05:53:00,
2013-09-16 01:03:00,54.0,50.0,-100.00,WSW,250,5.0,10.0,86,-99.99,,,-99.99,,2013-09-16 06:03:00,
2013-09-16 01:43:00,53.0,48.0,-100.00,WSW,250,1.0,6.0,85,-99.99,,,-99.99,,2013-09-16 06:43:00,
2013-09-16 01:52:00,53.0,48.0,-100.00,WSW,250,1.0,6.0,85,-99.99,,,-99.99,,2013-09-16 06:52:00,
2013-09-16 02:02:00,53.0,48.0,-100.00,WSW,250,1.0,6.0,85,-99.99,,,-99.99,,2013-09-16 07:02:00,
2013-09-16 02:43:00,52.0,47.0,-100.00,WSW,250,1.0,4.0,86,-99.99,,,-99.99,,2013-09-16 07:43:00,
2013-09-16 02:52:00,52.0,47.0,-100.00,WSW,250,1.0,4.0,86,-99.99,,,-99.99,,2013-09-16 07:52:00,
2013-09-16 03:02:00,52.0,47.0,-100.00,WSW,250,1.0,4.0,86,-99.99,,,-99.99,,2013-09-16 08:02:00,
2013-09-16 03:42:00,50.0,45.0,-100.00,WSW,250,7.0,14.0,84,-99.99,,,-99.99,,2013-09-16 08:42:00,
2013-09-16 03:52:00,50.0,45.0,-100.00,WSW,250,7.0,14.0,84,-99.99,,,-99.99,,2013-09-16 08:52:00,
2013-09-16 04:02:00,50.0,45.0,-100.00,WSW,250,7.0,14.0,84,-99.99,,,-99.99,,2013-09-16 09:02:00,
2013-09-16 04:43:00,47.0,44.0,-100.00,WSW,250,5.0,7.0,90,-99.99,,,-99.99,,2013-09-16 09:43:00,
2013-09-16 04:53:00,47.0,44.0,-100.00,WSW,250,5.0,7.0,90,-99.99,,,-99.99,,2013-09-16 09:53:00,
2013-09-16 05:03:00,47.0,44.0,-100.00,WSW,250,5.0,7.0,90,-99.99,,,-99.99,,2013-09-16 10:03:00,
2013-09-16 07:42:00,40.0,40.0,-100.00,WSW,250,2.0,4.0,99,-99.99,,,-99.99,,2013-09-16 12:42:00,
2013-09-16 07:52:00,40.0,40.0,-100.00,WSW,250,2.0,4.0,99,-99.99,,,-99.99,,2013-09-16 12:52:00,
2013-09-16 08:02:00,40.0,40.0,-100.00,WSW,250,2.0,4.0,99,-99.99,,,-99.99,,2013-09-16 13:02:00,
2013-09-16 08:42:00,45.0,44.0,-100.00,WSW,250,2.0,6.0,97,-99.99,,,-99.99,,2013-09-16 13:42:00,
2013-09-16 08:52:00,45.0,44.0,-100.00,WSW,250,2.0,6.0,97,-99.99,,,-99.99,,2013-09-16 13:52:00,
2013-09-16 09:02:00,45.0,44.0,-100.00,WSW,250,2.0,6.0,97,-99.99,,,-99.99,,2013-09-16 14:02:00,
2013-09-16 09:42:00,49.0,42.0,-100.00,WSW,250,4.0,9.0,77,-99.99,,,-99.99,,2013-09-16 14:42:00,
2013-09-16 09:52:00,49.0,42.0,-100.00,WSW,250,4.0,9.0,77,-99.99,,,-99.99,,2013-09-16 14:52:00,
2013-09-16 10:02:00,49.0,42.0,-100.00,WSW,250,4.0,9.0,77,-99.99,,,-99.99,,2013-09-16 15:02:00,
2013-09-16 10:43:00,53.0,43.0,-100.00,WSW,250,6.0,11.0,69,-99.99,,,-99.99,,2013-09-16 15:43:00,
2013-09-16 10:53:00,53.0,43.0,-100.00,WSW,250,6.0,11.0,69,-99.99,,,-99.99,,2013-09-16 15:53:00,
2013-09-16 11:03:00,53.0,43.0,-100.00,WSW,250,6.0,11.0,69,-99.99,,,-99.99,,2013-09-16 16:03:00,
2013-09-16 11:43:00,56.0,43.0,-100.00,WSW,250,7.0,11.0,62,-99.99,,,-99.99,,2013-09-16 16:43:00,
2013-09-16 11:52:00,56.0,43.0,-100.00,WSW,250,7.0,11.0,62,-99.99,,,-99.99,,2013-09-16 16:52:00,
2013-09-16 12:03:00,56.0,43.0,-100.00,WSW,250,7.0,11.0,62,-99.99,,,-99.99,,2013-09-16 17:03:00,
2013-09-16 13:42:00,62.0,40.0,-100.00,WSW,250,6.0,12.0,45,-99.99,,,-99.99,,2013-09-16 18:42:00,
2013-09-16 13:52:00,62.0,40.0,-100.00,WSW,250,6.0,12.0,45,-99.99,,,-99.99,,2013-09-16 18:52:00,
2013-09-16 14:01:00,62.0,40.0,-100.00,WSW,250,6.0,12.0,45,-99.99,,,-99.99,,2013-09-16 19:01:00,
2013-09-16 14:42:00,63.0,40.0,-100.00,WSW,250,6.0,10.0,43,-99.99,,,-99.99,,2013-09-16 19:42:00,
2013-09-16 14:53:00,63.0,40.0,-100.00,WSW,250,6.0,10.0,43,-99.99,,,-99.99,,2013-09-16 19:53:00,
2013-09-16 15:03:00,63.0,40.0,-100.00,WSW,250,6.0,10.0,43,-99.99,,,-99.99,,2013-09-16 20:03:00,
2013-09-16 15:43:00,63.0,39.0,-100.00,WSW,250,4.0,10.0,42,-99.99,,,-99.99,,2013-09-16 20:43:00,
2013-09-16 15:52:00,63.0,39.0,-100.00,WSW,250,4.0,10.0,42,-99.99,,,-99.99,,2013-09-16 20:52:00,
2013-09-16 16:03:00,63.0,39.0,-100.00,WSW,250,4.0,10.0,42,-99.99,,,-99.99,,2013-09-16 21:03:00,
2013-09-16 16:44:00,63.0,40.0,-100.00,WSW,250,2.0,8.0,42,-99.99,,,-99.99,,2013-09-16 21:44:00,
2013-09-16 16:56:00,63.0,40.0,-100.00,WSW,250,2.0,8.0,42,-99.99,,,-99.99,,2013-09-16 21:56:00,
2013-09-16 17:04:00,63.0,40.0,-100.00,WSW,250,2.0,8.0,42,-99.99,,,-99.99,,2013-09-16 22:04:00,
2013-09-16 17:43:00,63.0,40.0,-100.00,WSW,250,6.0,9.0,42,-99.99,,,-99.99,,2013-09-16 22:43:00,
2013-09-16 17:54:00,63.0,40.0,-100.00,WSW,250,6.0,9.0,42,-99.99,,,-99.99,,2013-09-16 22:54:00,
2013-09-16 18:02:00,63.0,40.0,-100.00,WSW,250,6.0,9.0,42,-99.99,,,-99.99,,2013-09-16 23:02:00,
2013-09-16 18:43:00,62.0,40.0,-100.00,WSW,250,5.0,9.0,45,-99.99,,,-99.99,,2013-09-16 23:43:00,
2013-09-16 18:53:00,62.0,40.0,-100.00,WSW,250,5.0,9.0,45,-99.99,,,-99.99,,2013-09-16 23:53:00,
2013-09-16 19:02:00,62.0,40.0,-100.00,WSW,250,5.0,9.0,45,-99.99,,,-99.99,,2013-09-17 00:02:00,
2013-09-16 19:42:00,58.0,42.0,-100.00,WSW,250,2.0,5.0,56,-99.99,,,-99.99,,2013-09-17 00:42:00,
2013-09-16 19:52:00,58.0,42.0,-100.00,WSW,250,2.0,5.0,56,-99.99,,,-99.99,,2013-09-17 00:52:00,
2013-09-16 20:02:00,58.0,42.0,-100.00,WSW,250,2.0,5.0,56,-99.99,,,-99.99,,2013-09-17 01:02:00,
2013-09-16 20:42:00,50.0,46.0,-100.00,WSW,250,0.0,0.0,84,-99.99,,,-99.99,,2013-09-17 01:42:00,
2013-09-16 20:52:00,50.0,46.0,-100.00,WSW,250,0.0,0.0,84,-99.99,,,-99.99,,2013-09-17 01:52:00,
2013-09-16 21:03:00,50.0,46.0,-100.00,WSW,250,0.0,0.0,84,-99.99,,,-99.99,,2013-09-17 02:03:00,
2013-09-16 21:42:00,47.0,45.0,-100.00,WSW,250,0.0,0.0,94,-99.99,,,-99.99,,2013-09-17 02:42:00,
2013-09-16 21:52:00,47.0,45.0,-100.00,WSW,250,0.0,0.0,94,-99.99,,,-99.99,,2013-09-17 02:52:00,
2013-09-16 22:02:00,47.0,45.0,-100.00,WSW,250,0.0,0.0,94,-99.99,,,-99.99,,2013-09-17 03:02:00,
2013-09-16 22:45:00,45.0,45.0,-100.00,WSW,250,0.0,0.0,98,-99.99,,,-99.99,,2013-09-17 03:45:00,
2013-09-16 22:54:00,45.0,45.0,-100.00,WSW,250,0.0,0.0,98,-99.99,,,-99.99,,2013-09-17 03:54:00,
2013-09-16 23:04:00,45.0,45.0,-100.00,WSW,250,0.0,0.0,98,-99.99,,,-99.99,,2013-09-17 04:04:00,
2013-09-16 23:44:00,45.0,44.0,-100.00,WSW,250,0.0,1.0,99,-99.99,,,-99.99,,2013-09-17 04:44:00,
2013-09-16 23:54:00,45.0,44.0,-100.00,WSW,250,0.0,1.0,99,-99.99,,,-99.99,,2013-09-17 04:54:00,